sat.trackr.live / text

‹ back to catalog

STARLINK-11097 [DTC]

NORAD 59759 · 2024-091G

PAYLOAD ACTIVE UNKNOWN

§ Identity

Operator
Country
US
Launch date
2024-05-14
Launch site
AFWTR
Launch vehicle
Mass (kg)
RCS (m²)

Purposes: comms

External: N2YO · Heavens-Above · Gunter

§ Orbital elements

Epoch: 2026-05-24T20:08:42.007776Z

Period
91.74 min
Inclination
53.1591°
Eccentricity
0.0000953
Mean motion
15.69709351 rev/d
Perigee alt
359.1 km
Apogee alt
360.4 km
Semi-major
6,737.9 km
B*
6.1539e-6
RAAN
190.8594°
Arg perigee
73.2678°
Mean anomaly
286.8445°
Rev number
11,747

§ Raw data

STARLINK-11097 [DTC]1 59759U 24091G   26144.83937509  .00000157  00000+0  61539-5 0  99932 59759  53.1591 190.8594 0000953  73.2678 286.8445 15.69709351117470

JSON: /api/v1/satellites/59759 · /tle

For live sub-satellite position, see the globe view (requires WebGL).

§ Visibility from observer

Set your observer location to see the next 7 days of passes ≥ 10°. The values pass through the URL so the page stays shareable.

No JS? Fill the form by hand. The geolocation button needs JavaScript.